Consulta los datos en tiempo real de la estación municipal de Susqueda - St. Martí Sacalm
| Hora UTC | 03:25 |
|---|---|
| Temperatura | 18.5 ºC |
| Humedad | 77.0 % |
| Presión | 1022.5 hPa |
| Pluja | 0.0 mm |
| Velocidad viento | 8.7 km/h |
| Dirección viento | SW |
| Radiación solar | 0.1 W/m² |
| Temperatura (ºC) | Humedad (%) | Presión (hPa) | Velocidad viento (km/h) | Precipitación (mm) | Radiación solar (W/m²) | |||||||||||||
|---|---|---|---|---|---|---|---|---|---|---|---|---|---|---|---|---|---|---|
| Hora UTC | Aire | Humedad | Presión | Vel. | Dir. | Vel. Max | Dir. | Intent. máx 5 min. | Rad. Sol. | |||||||||
| 00:05 | 21.2 | 71.9 | 1022.9 | 0.0 | NNE | 0.0 | SW | 0.0 | 0.1 | |||||||||
| 00:10 | 21.3 | 70.8 | 1022.8 | 0.0 | NNE | 0.0 | SW | 0.0 | 0.1 | |||||||||
| 00:15 | 21.4 | 70.1 | 1022.8 | 0.0 | NNE | 0.0 | SW | 0.0 | 0.1 | |||||||||
| 00:20 | 21.4 | 70.4 | 1022.8 | 0.0 | NNE | 0.0 | SW | 0.0 | 0.1 | |||||||||
| 00:25 | 21.4 | 71.1 | 1022.8 | 0.0 | NNE | 0.0 | SW | 0.0 | 0.1 | |||||||||
| 00:30 | 21.3 | 71.1 | 1022.8 | 0.0 | NNE | 0.0 | WSW | 0.0 | 0.1 | |||||||||
| 00:35 | 21.2 | 71.5 | 1022.8 | 0.0 | NNE | 0.0 | SW | 0.0 | 0.1 | |||||||||
| 00:40 | 21.2 | 71.6 | 1022.9 | 0.0 | NNE | 0.0 | SW | 0.0 | 0.1 | |||||||||
| 00:45 | 21.2 | 70.9 | 1022.9 | 0.0 | NNE | 0.0 | SW | 0.0 | 0.1 | |||||||||
| 00:50 | 21.1 | 70.9 | 1022.8 | 0.0 | NNE | 0.0 | SW | 0.0 | 0.1 | |||||||||
| 00:55 | 21.1 | 70.6 | 1022.8 | 1.0 | SW | 4.2 | SW | 0.0 | 0.1 | |||||||||
| 01:00 | 21.1 | 70.4 | 1022.7 | 4.4 | WSW | 6.0 | SW | 0.0 | 0.1 | |||||||||
| 01:05 | 21.1 | 70.3 | 1022.7 | 4.5 | SW | 5.7 | SW | 0.0 | 0.1 | |||||||||
| 01:10 | 21.1 | 70.1 | 1022.7 | 3.6 | SW | 5.3 | WSW | 0.0 | 0.1 | |||||||||
| 01:15 | 21.0 | 70.3 | 1022.7 | 3.2 | SW | 4.6 | SW | 0.0 | 0.1 | |||||||||
| 01:20 | 20.9 | 71.2 | 1022.7 | 4.2 | SW | 5.0 | SW | 0.0 | 0.1 | |||||||||
| 01:25 | 20.8 | 71.5 | 1022.6 | 3.9 | SW | 5.0 | SW | 0.0 | 0.1 | |||||||||
| 01:30 | 20.8 | 71.9 | 1022.6 | 4.9 | SSW | 6.4 | SSW | 0.0 | 0.1 | |||||||||
| 01:35 | 20.7 | 72.7 | 1022.6 | 5.6 | SW | 6.7 | SW | 0.0 | 0.1 | |||||||||
| 01:40 | 20.4 | 73.7 | 1022.6 | 5.6 | SW | 6.7 | SW | 0.0 | 0.1 | |||||||||
| 01:45 | 20.1 | 74.7 | 1022.6 | 6.4 | SW | 7.1 | SW | 0.0 | 0.1 | |||||||||
| 01:50 | 19.9 | 74.9 | 1022.7 | 6.7 | SW | 7.4 | SW | 0.0 | 0.1 | |||||||||
| 01:55 | 19.7 | 73.5 | 1022.6 | 6.0 | SW | 6.7 | SW | 0.0 | 0.1 | |||||||||
| 02:00 | 19.7 | 71.6 | 1022.7 | 5.4 | SW | 6.4 | SW | 0.0 | 0.1 | |||||||||
| 02:05 | 19.9 | 71.0 | 1022.6 | 5.5 | SSW | 7.1 | SSW | 0.0 | 0.1 | |||||||||
| 02:10 | 20.1 | 70.5 | 1022.6 | 5.8 | SSW | 7.4 | SSW | 0.0 | 0.1 | |||||||||
| 02:15 | 20.1 | 70.2 | 1022.6 | 6.3 | SSW | 7.4 | SSW | 0.0 | 0.1 | |||||||||
| 02:20 | 20.0 | 70.8 | 1022.6 | 5.7 | SW | 7.4 | SSW | 0.0 | 0.1 | |||||||||
| 02:25 | 19.9 | 70.4 | 1022.7 | 6.1 | SW | 9.2 | WSW | 0.0 | 0.1 | |||||||||
| 02:30 | 19.9 | 70.5 | 1022.7 | 6.4 | SW | 7.8 | SW | 0.0 | 0.1 | |||||||||
| 02:35 | 19.6 | 71.5 | 1022.6 | 5.7 | SW | 6.7 | SSW | 0.0 | 0.1 | |||||||||
| 02:40 | 19.5 | 72.5 | 1022.6 | 5.8 | SW | 7.1 | SSW | 0.0 | 0.1 | |||||||||
| 02:45 | 19.5 | 72.8 | 1022.6 | 5.9 | SW | 6.7 | SW | 0.0 | 0.1 | |||||||||
| 02:50 | 19.5 | 72.9 | 1022.6 | 5.2 | SSW | 6.0 | SW | 0.0 | 0.1 | |||||||||
| 02:55 | 19.4 | 72.9 | 1022.6 | 4.4 | SSW | 6.4 | SSW | 0.0 | 0.1 | |||||||||
| 03:00 | 19.4 | 72.1 | 1022.6 | 6.8 | SSW | 8.1 | SSW | 0.0 | 0.1 | |||||||||
| 03:05 | 19.4 | 71.7 | 1022.6 | 8.4 | SW | 9.5 | SW | 0.0 | 0.1 | |||||||||
| 03:10 | 19.2 | 72.4 | 1022.5 | 8.6 | SW | 9.9 | SW | 0.0 | 0.1 | |||||||||
| 03:15 | 18.9 | 74.1 | 1022.6 | 8.3 | SW | 9.9 | SW | 0.0 | 0.1 | |||||||||
| 03:20 | 18.6 | 75.7 | 1022.6 | 9.0 | SW | 10.6 | SW | 0.0 | 0.1 | |||||||||
| 03:25 | 18.5 | 77.0 | 1022.5 | 8.7 | SW | 10.3 | SW | 0.0 | 0.1 | |||||||||
| Máxima | 21.4 | 77.0 | 1022.9 | 9.0 | SW | 10.6 | SW | 0.0 | 0.1 | |||||||||
| Mínima | 18.5 | 70.1 | 1022.5 | |||||||||||||||
| Total | 0.0 | |||||||||||||||||